COSMOS 2354

Satellite information

Favourite Embed

Satellite Type and Status

PAYLOADIN ORBIT

Key statistics

Satellite COSMOS 2354 at a glance.

Uptime

9826

Days in orbit

Revolutions

≈ 12.2

Per day

Orbit

LEO

Low Earth Orbit

Inclination

82.6

Latest

Satellite identification and parameters

Extended collection of information and parameters for COSMOS 2354.

Object identification

Identified? True

Debris? False

Object name: COSMOS 2354

International designator: 1998-036C

Object number (NORAD): 25365

Object ID (CCSDS): 25365

Country: COMMONWEALTH OF INDEPENDENT STATES (CIS)

Current information (Y/N): Y

RCS size: MEDIUM

Orbital parameters

Period: 117.949 minutes

Inclination: 82.585 deg

SMA: 7966.907 km

Apoapsis: 1869.913 km

Periapsis: 1307.631 km

RAAN: 225.8825 deg

Eccentricy: 0.0352886

Argument of periapsis: 4.9401 deg

Mean anomaly: 111.6399 deg

Mean motion: 12.20866355 rev/day

Mean motion (dot): -0.00000009 rev/day2

B* drag term: -0.00014087 1/REarth

Two-line elements (TLE)

Creation date: May 10, 2025, 2:32 a.m.

Reference frame: TEME

Reference center: EARTH

Epoch: May 9, 2025, 6:56 p.m. UTC

TLE line 0: 0 COSMOS 2354

TLE line 1: 1 25365U 98036C 25129.78912081 -.00000009 00000-0 -14087-3 0 9996

TLE line 2: 2 25365 82.5850 225.8825 0352886 4.9401 111.6399 12.20866355198841

Live tracking on map

Real-time ground track for satellite COSMOS 2354.

In-orbit conjunctions

There are no conjunctions computed for COSMOS 2354, at the moment. Check back to stay up to date, as we update our databases every day.

Go to all conjunctions

Associated space launch

Second generation store-dump military communications satellites

COSMOS 2354 was lifted into orbit during the mission ‘Tsiklon-3 | Strela-3 119 to 124’, on board a Tsiklon-3 space rocket.

The launch took place on June 15, 1998, 10:58 p.m. from 32/1.

For more information about the launch, click the button.

Launch to space Tsiklon-3 | Strela-3 119 to 124
Tsiklon-3 | Strela-3 119 to 124

Agency: N/A

Status: Launch Successful

Launch date: June 15, 1998, 10:58 p.m. UTC

Rocket: Tsiklon-3

Launch pad: 32/1

Location: Plesetsk Cosmodrome, Russian Federation

...

Latest news about this satellite

There are no fresh news available about this satellite. Check back as we update our databases every day.


Newsletter sign-up

Weekly statistics, charts and insights to help you stay on top of the space industry.